Year,Month,Day,Hour,Minute,Value (Times are PST for temperature in C)
2008,07,25,00,00,14.70
2008,07,25,00,01,14.60
2008,07,25,00,02,14.60
2008,07,25,00,03,14.60
2008,07,25,00,04,14.60
2008,07,25,00,05,14.60
2008,07,25,00,06,14.50
2008,07,25,00,07,14.50
2008,07,25,00,08,14.50
2008,07,25,00,09,14.40
2008,07,25,00,10,14.40
2008,07,25,00,11,14.40
2008,07,25,00,12,14.40
2008,07,25,00,13,14.40
2008,07,25,00,14,14.30
2008,07,25,00,15,14.30
2008,07,25,00,16,14.30
2008,07,25,00,17,14.30
2008,07,25,00,18,14.30
2008,07,25,00,19,14.30
2008,07,25,00,20,14.20
2008,07,25,00,21,14.20
2008,07,25,00,22,14.20
2008,07,25,00,23,14.20
2008,07,25,00,24,14.20
2008,07,25,00,25,14.20
2008,07,25,00,26,14.20
2008,07,25,00,27,14.20
2008,07,25,00,28,14.20
2008,07,25,00,29,14.20
2008,07,25,00,30,14.10
2008,07,25,00,31,14.10
2008,07,25,00,32,14.10
2008,07,25,00,33,14.10
2008,07,25,00,34,14.10
2008,07,25,00,35,14.00
2008,07,25,00,36,14.00
2008,07,25,00,37,14.00
2008,07,25,00,38,14.00
2008,07,25,00,39,14.00
2008,07,25,00,40,14.00
2008,07,25,00,41,14.00
2008,07,25,00,42,14.00
2008,07,25,00,43,14.00
2008,07,25,00,44,13.90
2008,07,25,00,45,13.90
2008,07,25,00,46,13.90
2008,07,25,00,47,13.90
2008,07,25,00,48,13.90
2008,07,25,00,49,13.80
2008,07,25,00,50,13.80
2008,07,25,00,51,13.80
2008,07,25,00,52,13.80
2008,07,25,00,53,13.70
2008,07,25,00,54,13.70
2008,07,25,00,55,13.70
2008,07,25,00,56,13.60
2008,07,25,00,57,13.60
2008,07,25,00,58,13.50
2008,07,25,00,59,13.50
2008,07,25,01,00,13.40
2008,07,25,01,01,13.30
2008,07,25,01,02,13.30
2008,07,25,01,03,13.30
2008,07,25,01,04,13.20
2008,07,25,01,05,13.20
2008,07,25,01,06,13.10
2008,07,25,01,07,13.10
2008,07,25,01,08,13.00
2008,07,25,01,09,13.00
2008,07,25,01,10,13.00
2008,07,25,01,11,12.90
2008,07,25,01,12,12.90
2008,07,25,01,13,12.90
2008,07,25,01,14,12.90
2008,07,25,01,15,12.90
2008,07,25,01,16,12.80
2008,07,25,01,17,12.80
2008,07,25,01,18,12.80
2008,07,25,01,19,12.80
2008,07,25,01,20,12.80
2008,07,25,01,21,12.80
2008,07,25,01,22,12.70
2008,07,25,01,23,12.70
2008,07,25,01,24,12.70
2008,07,25,01,25,12.70
2008,07,25,01,26,12.70
2008,07,25,01,27,12.60
2008,07,25,01,28,12.60
2008,07,25,01,29,12.60
2008,07,25,01,30,12.60
2008,07,25,01,31,12.60
2008,07,25,01,32,12.60
2008,07,25,01,33,12.60
2008,07,25,01,34,12.60
2008,07,25,01,35,12.50
2008,07,25,01,36,12.50
2008,07,25,01,37,12.50
2008,07,25,01,38,12.50
2008,07,25,01,39,12.40
2008,07,25,01,40,12.40
2008,07,25,01,41,12.40
2008,07,25,01,42,12.40
2008,07,25,01,43,12.30
2008,07,25,01,44,12.30
2008,07,25,01,45,12.30
2008,07,25,01,46,12.30
2008,07,25,01,47,12.30
2008,07,25,01,48,12.30
2008,07,25,01,49,12.30
2008,07,25,01,50,12.30
2008,07,25,01,51,12.30
2008,07,25,01,52,12.30
2008,07,25,01,53,12.20
2008,07,25,01,54,12.20
2008,07,25,01,55,12.20
2008,07,25,01,56,12.20
2008,07,25,01,57,12.20
2008,07,25,01,58,12.20
2008,07,25,01,59,12.20
2008,07,25,02,00,12.20
2008,07,25,02,01,12.20
2008,07,25,02,02,12.20
2008,07,25,02,03,12.10
2008,07,25,02,04,12.10
2008,07,25,02,05,12.10
2008,07,25,02,06,12.10
2008,07,25,02,07,12.00
2008,07,25,02,08,12.00
2008,07,25,02,09,12.00
2008,07,25,02,10,12.00
2008,07,25,02,11,12.00
2008,07,25,02,12,11.90
2008,07,25,02,13,11.90
2008,07,25,02,14,11.90
2008,07,25,02,15,11.90
2008,07,25,02,16,11.90
2008,07,25,02,17,11.90
2008,07,25,02,18,11.80
2008,07,25,02,19,11.80
2008,07,25,02,20,11.80
2008,07,25,02,21,11.80
2008,07,25,02,22,11.80
2008,07,25,02,23,11.80
2008,07,25,02,24,11.80
2008,07,25,02,25,11.80
2008,07,25,02,26,11.80
2008,07,25,02,27,11.80
2008,07,25,02,28,11.80
2008,07,25,02,29,11.80
2008,07,25,02,30,11.80
2008,07,25,02,31,11.70
2008,07,25,02,32,11.70
2008,07,25,02,33,11.70
2008,07,25,02,34,11.70
2008,07,25,02,35,11.70
2008,07,25,02,36,11.70
2008,07,25,02,37,11.70
2008,07,25,02,38,11.70
2008,07,25,02,39,11.70
2008,07,25,02,40,11.70
2008,07,25,02,41,11.60
2008,07,25,02,42,11.60
2008,07,25,02,43,11.60
2008,07,25,02,44,11.60
2008,07,25,02,45,11.60
2008,07,25,02,46,11.60
2008,07,25,02,47,11.60
2008,07,25,02,48,11.60
2008,07,25,02,49,11.60
2008,07,25,02,50,11.60
2008,07,25,02,51,11.60
2008,07,25,02,52,11.60
2008,07,25,02,53,11.60
2008,07,25,02,54,11.60
2008,07,25,02,55,11.60
2008,07,25,02,56,11.60
2008,07,25,02,57,11.60
2008,07,25,02,58,11.60
2008,07,25,02,59,11.60
2008,07,25,03,00,11.50
2008,07,25,03,01,11.40
2008,07,25,03,02,11.40
2008,07,25,03,03,11.40
2008,07,25,03,04,11.40
2008,07,25,03,05,11.40
2008,07,25,03,06,11.40
2008,07,25,03,07,11.40
2008,07,25,03,08,11.50
2008,07,25,03,09,11.60
2008,07,25,03,10,11.60
2008,07,25,03,11,11.60
2008,07,25,03,12,11.60
2008,07,25,03,13,11.60
2008,07,25,03,14,11.60
2008,07,25,03,15,11.50
2008,07,25,03,16,11.40
2008,07,25,03,17,11.40
2008,07,25,03,18,11.40
2008,07,25,03,19,11.30
2008,07,25,03,20,11.30
2008,07,25,03,21,11.30
2008,07,25,03,22,11.20
2008,07,25,03,23,11.20
2008,07,25,03,24,11.20
2008,07,25,03,25,11.20
2008,07,25,03,26,11.20
2008,07,25,03,27,11.20
2008,07,25,03,28,11.20
2008,07,25,03,29,11.20
2008,07,25,03,30,11.20
2008,07,25,03,31,11.20
2008,07,25,03,32,11.20
2008,07,25,03,33,11.10
2008,07,25,03,34,11.10
2008,07,25,03,35,11.10
2008,07,25,03,36,11.10
2008,07,25,03,37,11.10
2008,07,25,03,38,11.10
2008,07,25,03,39,11.10
2008,07,25,03,40,11.10
2008,07,25,03,41,11.10
2008,07,25,03,42,11.10
2008,07,25,03,43,11.10
2008,07,25,03,44,11.10
2008,07,25,03,45,11.10
2008,07,25,03,46,11.10
2008,07,25,03,47,11.10
2008,07,25,03,48,11.10
2008,07,25,03,49,11.10
2008,07,25,03,50,11.10
2008,07,25,03,51,11.10
2008,07,25,03,52,11.10
2008,07,25,03,53,11.10
2008,07,25,03,54,11.10
2008,07,25,03,55,11.10
2008,07,25,03,56,11.10
2008,07,25,03,57,11.00
2008,07,25,03,58,10.90
2008,07,25,03,59,10.90
2008,07,25,04,00,10.90
2008,07,25,04,01,10.90
2008,07,25,04,02,10.90
2008,07,25,04,03,10.90
2008,07,25,04,04,10.90
2008,07,25,04,05,10.90
2008,07,25,04,06,10.90
2008,07,25,04,07,10.90
2008,07,25,04,08,10.90
2008,07,25,04,09,10.90
2008,07,25,04,10,10.90
2008,07,25,04,11,10.90
2008,07,25,04,12,10.90
2008,07,25,04,13,10.80
2008,07,25,04,14,10.80
2008,07,25,04,15,10.80
2008,07,25,04,16,10.80
2008,07,25,04,17,10.90
2008,07,25,04,18,10.90
2008,07,25,04,19,10.90
2008,07,25,04,20,10.90
2008,07,25,04,21,10.90
2008,07,25,04,22,10.90
2008,07,25,04,23,10.90
2008,07,25,04,24,10.90
2008,07,25,04,25,10.90
2008,07,25,04,26,10.90
2008,07,25,04,27,10.90
2008,07,25,04,28,10.90
2008,07,25,04,29,10.90
2008,07,25,04,30,10.80
2008,07,25,04,31,10.80
2008,07,25,04,32,10.80
2008,07,25,04,33,10.80
2008,07,25,04,34,10.80
2008,07,25,04,35,10.80
2008,07,25,04,36,10.80
2008,07,25,04,37,10.80
2008,07,25,04,38,10.70
2008,07,25,04,39,10.70
2008,07,25,04,40,10.70
2008,07,25,04,41,10.70
2008,07,25,04,42,10.70
2008,07,25,04,43,10.60
2008,07,25,04,44,10.60
2008,07,25,04,45,10.60
2008,07,25,04,46,10.60
2008,07,25,04,47,10.60
2008,07,25,04,48,10.60
2008,07,25,04,49,10.60
2008,07,25,04,50,10.60
2008,07,25,04,51,10.60
2008,07,25,04,52,10.60
2008,07,25,04,53,10.60
2008,07,25,04,54,10.60
2008,07,25,04,55,10.60
2008,07,25,04,56,10.60
2008,07,25,04,57,10.60
2008,07,25,04,58,10.60
2008,07,25,04,59,10.60
2008,07,25,05,00,10.60
2008,07,25,05,01,10.60
2008,07,25,05,02,10.60
2008,07,25,05,03,10.60
2008,07,25,05,04,10.60
2008,07,25,05,05,10.60
2008,07,25,05,06,10.60
2008,07,25,05,07,10.60
2008,07,25,05,08,10.60
2008,07,25,05,09,10.60
2008,07,25,05,10,10.60
2008,07,25,05,11,10.60
2008,07,25,05,12,10.60
2008,07,25,05,13,10.60
2008,07,25,05,14,10.60
2008,07,25,05,15,10.60
2008,07,25,05,16,10.60
2008,07,25,05,17,10.60
2008,07,25,05,18,10.60
2008,07,25,05,19,10.60
2008,07,25,05,20,10.60
2008,07,25,05,21,10.70
2008,07,25,05,22,10.70
2008,07,25,05,23,10.70
2008,07,25,05,24,10.70
2008,07,25,05,25,10.70
2008,07,25,05,26,10.80
2008,07,25,05,27,10.80
2008,07,25,05,28,10.80
2008,07,25,05,29,10.80
2008,07,25,05,30,10.80
2008,07,25,05,31,10.80
2008,07,25,05,32,10.80
2008,07,25,05,33,10.80
2008,07,25,05,34,10.80
2008,07,25,05,35,10.80
2008,07,25,05,36,10.80
2008,07,25,05,37,10.80
2008,07,25,05,38,10.80
2008,07,25,05,39,10.80
2008,07,25,05,40,10.80
2008,07,25,05,41,10.80
2008,07,25,05,42,10.80
2008,07,25,05,43,10.80
2008,07,25,05,44,10.80
2008,07,25,05,45,10.80
2008,07,25,05,46,10.80
2008,07,25,05,47,10.80
2008,07,25,05,48,10.80
2008,07,25,05,49,10.80
2008,07,25,05,50,10.80
2008,07,25,05,51,10.80
2008,07,25,05,52,10.80
2008,07,25,05,53,10.80
2008,07,25,05,54,10.80
2008,07,25,05,55,10.80
2008,07,25,05,56,10.80
2008,07,25,05,57,10.80
2008,07,25,05,58,10.80
2008,07,25,05,59,10.80
2008,07,25,06,00,10.80
2008,07,25,06,01,10.80
2008,07,25,06,02,10.80
2008,07,25,06,03,10.80
2008,07,25,06,04,10.80
2008,07,25,06,05,10.90
2008,07,25,06,06,10.90
2008,07,25,06,07,10.90
2008,07,25,06,08,10.90
2008,07,25,06,09,10.90
2008,07,25,06,10,10.90
2008,07,25,06,11,10.90
2008,07,25,06,12,10.90
2008,07,25,06,13,10.90
2008,07,25,06,14,10.90
2008,07,25,06,15,10.90
2008,07,25,06,16,10.90
2008,07,25,06,17,10.90
2008,07,25,06,18,10.90
2008,07,25,06,19,10.90
2008,07,25,06,20,10.90
2008,07,25,06,21,10.90
2008,07,25,06,22,10.90
2008,07,25,06,23,10.90
2008,07,25,06,24,10.90
2008,07,25,06,25,10.90
2008,07,25,06,26,10.90
2008,07,25,06,27,10.90
2008,07,25,06,28,10.90
2008,07,25,06,29,10.90
2008,07,25,06,30,10.90
2008,07,25,06,31,10.90
2008,07,25,06,32,11.00
2008,07,25,06,33,11.10
2008,07,25,06,34,11.10
2008,07,25,06,35,11.10
2008,07,25,06,36,11.10
2008,07,25,06,37,11.10
2008,07,25,06,38,11.10
2008,07,25,06,39,11.10
2008,07,25,06,40,11.10
2008,07,25,06,41,11.10
2008,07,25,06,42,11.10
2008,07,25,06,43,11.10
2008,07,25,06,44,11.10
2008,07,25,06,45,11.10
2008,07,25,06,46,11.20
2008,07,25,06,47,11.20
2008,07,25,06,48,11.20
2008,07,25,06,49,11.20
2008,07,25,06,50,11.20
2008,07,25,06,51,11.30
2008,07,25,06,52,11.30
2008,07,25,06,53,11.30
2008,07,25,06,54,11.30
2008,07,25,06,55,11.40
2008,07,25,06,56,11.40
2008,07,25,06,57,11.40
2008,07,25,06,58,11.40
2008,07,25,06,59,11.40
2008,07,25,07,00,11.40
2008,07,25,07,01,11.50
2008,07,25,07,02,11.60
2008,07,25,07,03,11.60
2008,07,25,07,04,11.60
2008,07,25,07,05,11.60
2008,07,25,07,06,11.60
2008,07,25,07,07,11.70
2008,07,25,07,08,11.70
2008,07,25,07,09,11.70
2008,07,25,07,10,11.70
2008,07,25,07,11,11.70
2008,07,25,07,12,11.80
2008,07,25,07,13,11.80
2008,07,25,07,14,11.80
2008,07,25,07,15,11.80
2008,07,25,07,16,11.80
2008,07,25,07,17,11.80
2008,07,25,07,18,11.80
2008,07,25,07,19,11.90
2008,07,25,07,20,11.90
2008,07,25,07,21,11.90
2008,07,25,07,22,12.00
2008,07,25,07,23,12.00
2008,07,25,07,24,12.00
2008,07,25,07,25,12.10
2008,07,25,07,26,12.10
2008,07,25,07,27,12.10
2008,07,25,07,28,12.20
2008,07,25,07,29,12.20
2008,07,25,07,30,12.30
2008,07,25,07,31,12.30
2008,07,25,07,32,12.30
2008,07,25,07,33,12.30
2008,07,25,07,34,12.40
2008,07,25,07,35,12.50
2008,07,25,07,36,12.50
2008,07,25,07,37,12.60
2008,07,25,07,38,12.70
2008,07,25,07,39,12.70
2008,07,25,07,40,12.80
2008,07,25,07,41,12.80
2008,07,25,07,42,12.90
2008,07,25,07,43,13.00
2008,07,25,07,44,13.10
2008,07,25,07,45,13.10
2008,07,25,07,46,13.10
2008,07,25,07,47,13.10
2008,07,25,07,48,13.20
2008,07,25,07,49,13.20
2008,07,25,07,50,13.20
2008,07,25,07,51,13.30
2008,07,25,07,52,13.30
2008,07,25,07,53,13.30
2008,07,25,07,54,13.40
2008,07,25,07,55,13.50
2008,07,25,07,56,13.50
2008,07,25,07,57,13.60
2008,07,25,07,58,13.60
2008,07,25,07,59,13.70
2008,07,25,08,00,13.70
2008,07,25,08,01,13.70
2008,07,25,08,02,13.70
2008,07,25,08,03,13.80
2008,07,25,08,04,13.80
2008,07,25,08,05,13.80
2008,07,25,08,06,13.90
2008,07,25,08,07,14.00
2008,07,25,08,08,14.00
2008,07,25,08,09,14.10
2008,07,25,08,10,14.20
2008,07,25,08,11,14.20
2008,07,25,08,12,14.20
2008,07,25,08,13,14.20
2008,07,25,08,14,14.30
2008,07,25,08,15,14.30
2008,07,25,08,16,14.30
2008,07,25,08,17,14.30
2008,07,25,08,18,14.30
2008,07,25,08,19,14.30
2008,07,25,08,20,14.30
2008,07,25,08,21,14.30
2008,07,25,08,22,14.40
2008,07,25,08,23,14.40
2008,07,25,08,24,14.40
2008,07,25,08,25,14.50
2008,07,25,08,26,14.50
2008,07,25,08,27,14.50
2008,07,25,08,28,14.60
2008,07,25,08,29,14.60
2008,07,25,08,30,14.60
2008,07,25,08,31,14.60
2008,07,25,08,32,14.70
2008,07,25,08,33,14.70
2008,07,25,08,34,14.80
2008,07,25,08,35,14.90
2008,07,25,08,36,14.90
2008,07,25,08,37,15.00
2008,07,25,08,38,15.10
2008,07,25,08,39,15.10
2008,07,25,08,40,15.10
2008,07,25,08,41,15.10
2008,07,25,08,42,15.20
2008,07,25,08,43,15.30
2008,07,25,08,44,15.30
2008,07,25,08,45,15.30
2008,07,25,08,46,15.30
2008,07,25,08,47,15.30
2008,07,25,08,48,15.20
2008,07,25,08,49,15.30
2008,07,25,08,50,15.30
2008,07,25,08,51,15.30
2008,07,25,08,52,15.30
2008,07,25,08,53,15.50
2008,07,25,08,54,15.50
2008,07,25,08,55,15.60
2008,07,25,08,56,15.70
2008,07,25,08,57,15.80
2008,07,25,08,58,15.80
2008,07,25,08,59,15.80
2008,07,25,09,00,15.80
2008,07,25,09,01,15.90
2008,07,25,09,02,15.90
2008,07,25,09,03,15.90
2008,07,25,09,04,16.10
2008,07,25,09,05,16.10
2008,07,25,09,06,16.10
2008,07,25,09,07,16.10
2008,07,25,09,08,16.20
2008,07,25,09,09,16.20
2008,07,25,09,10,16.20
2008,07,25,09,11,16.20
2008,07,25,09,12,16.30
2008,07,25,09,13,16.30
2008,07,25,09,14,16.30
2008,07,25,09,15,16.20
2008,07,25,09,16,16.30
2008,07,25,09,17,16.30
2008,07,25,09,18,16.30
2008,07,25,09,19,16.30
2008,07,25,09,20,16.40
2008,07,25,09,21,16.40
2008,07,25,09,22,16.40
2008,07,25,09,23,16.60
2008,07,25,09,24,16.60
2008,07,25,09,25,16.60
2008,07,25,09,26,16.60
2008,07,25,09,27,16.60
2008,07,25,09,28,16.70
2008,07,25,09,29,16.70
2008,07,25,09,30,16.70
2008,07,25,09,31,16.80
2008,07,25,09,32,16.80
2008,07,25,09,33,16.80
2008,07,25,09,34,16.90
2008,07,25,09,35,17.00
2008,07,25,09,36,17.10
2008,07,25,09,37,17.30
2008,07,25,09,38,17.30
2008,07,25,09,39,17.40
2008,07,25,09,40,17.50
2008,07,25,09,41,17.60
2008,07,25,09,42,17.70
2008,07,25,09,43,17.80
2008,07,25,09,44,17.90
2008,07,25,09,45,17.90
2008,07,25,09,46,17.90
2008,07,25,09,47,18.00
2008,07,25,09,48,18.10
2008,07,25,09,49,18.20
2008,07,25,09,50,18.20
2008,07,25,09,51,18.20
2008,07,25,09,52,18.20
2008,07,25,09,53,18.30
2008,07,25,09,54,18.30
2008,07,25,09,55,18.30
2008,07,25,09,56,18.30
2008,07,25,09,57,18.20
2008,07,25,09,58,18.20
2008,07,25,09,59,18.30
2008,07,25,10,00,18.30
2008,07,25,10,01,18.40
2008,07,25,10,02,18.40
2008,07,25,10,03,18.40
2008,07,25,10,04,18.40
2008,07,25,10,05,18.40
2008,07,25,10,06,18.50
2008,07,25,10,07,18.50
2008,07,25,10,08,18.50
2008,07,25,10,09,18.50
2008,07,25,10,10,18.60
2008,07,25,10,11,18.50
2008,07,25,10,12,18.50
2008,07,25,10,13,18.50
2008,07,25,10,14,18.50
2008,07,25,10,15,18.50
2008,07,25,10,16,18.50
2008,07,25,10,17,18.50
2008,07,25,10,18,18.50
2008,07,25,10,19,18.60
2008,07,25,10,20,18.70
2008,07,25,10,21,18.80
2008,07,25,10,22,18.90
2008,07,25,10,23,18.90
2008,07,25,10,24,18.90
2008,07,25,10,25,18.90
2008,07,25,10,26,18.90
2008,07,25,10,27,18.90
2008,07,25,10,28,18.90
2008,07,25,10,29,19.00
2008,07,25,10,30,19.10
2008,07,25,10,31,19.10
2008,07,25,10,32,19.10
2008,07,25,10,33,19.10
2008,07,25,10,34,19.10
2008,07,25,10,35,19.20
2008,07,25,10,36,19.20
2008,07,25,10,37,19.20
2008,07,25,10,38,19.30
2008,07,25,10,39,19.20
2008,07,25,10,40,19.10
2008,07,25,10,41,19.00
2008,07,25,10,42,18.90
2008,07,25,10,43,18.90
2008,07,25,10,44,18.90
2008,07,25,10,45,18.90
2008,07,25,10,46,18.90
2008,07,25,10,47,18.90
2008,07,25,10,48,18.90
2008,07,25,10,49,18.90
2008,07,25,10,50,18.80
2008,07,25,10,51,18.70
2008,07,25,10,52,18.70
2008,07,25,10,53,18.60
2008,07,25,10,54,18.60
2008,07,25,10,55,18.60
2008,07,25,10,56,18.60
2008,07,25,10,57,18.60
2008,07,25,10,58,18.50
2008,07,25,10,59,18.50
2008,07,25,11,00,18.50
2008,07,25,11,01,18.50
2008,07,25,11,02,18.40
2008,07,25,11,03,18.40
2008,07,25,11,04,18.40
2008,07,25,11,05,18.40
2008,07,25,11,06,18.50
2008,07,25,11,07,18.50
2008,07,25,11,08,18.60
2008,07,25,11,09,18.70
2008,07,25,11,10,18.80
2008,07,25,11,11,18.90
2008,07,25,11,12,18.90
2008,07,25,11,13,18.90
2008,07,25,11,14,18.90
2008,07,25,11,15,18.90
2008,07,25,11,16,18.90
2008,07,25,11,17,18.80
2008,07,25,11,18,18.70
2008,07,25,11,19,18.70
2008,07,25,11,20,18.70
2008,07,25,11,21,18.70
2008,07,25,11,22,18.70
2008,07,25,11,23,18.70
2008,07,25,11,24,18.70
2008,07,25,11,25,18.60
2008,07,25,11,26,18.60
2008,07,25,11,27,18.70
2008,07,25,11,28,18.70
2008,07,25,11,29,18.80
2008,07,25,11,30,18.80
2008,07,25,11,31,18.80
2008,07,25,11,32,18.70
2008,07,25,11,33,18.70
2008,07,25,11,34,18.70
2008,07,25,11,35,18.70
2008,07,25,11,36,18.80
2008,07,25,11,37,18.80
2008,07,25,11,38,18.80
2008,07,25,11,39,18.70
2008,07,25,11,40,18.70
2008,07,25,11,41,18.60
2008,07,25,11,42,18.60
2008,07,25,11,43,18.50
2008,07,25,11,44,18.50
2008,07,25,11,45,18.60
2008,07,25,11,46,18.60
2008,07,25,11,47,18.70
2008,07,25,11,48,18.70
2008,07,25,11,49,18.70
2008,07,25,11,50,18.60
2008,07,25,11,51,18.60
2008,07,25,11,52,18.50
2008,07,25,11,53,18.50
2008,07,25,11,54,18.40
2008,07,25,11,55,18.40
2008,07,25,11,56,18.30
2008,07,25,11,57,18.40
2008,07,25,11,58,18.40
2008,07,25,11,59,18.50
2008,07,25,12,00,18.50
2008,07,25,12,01,18.60
2008,07,25,12,02,18.60
2008,07,25,12,03,18.70
2008,07,25,12,04,18.80
2008,07,25,12,05,18.80
2008,07,25,12,06,18.90
2008,07,25,12,07,18.90
2008,07,25,12,08,18.90
2008,07,25,12,09,18.90
2008,07,25,12,10,19.10
2008,07,25,12,11,19.10
2008,07,25,12,12,19.10
2008,07,25,12,13,19.10
2008,07,25,12,14,19.10
2008,07,25,12,15,19.10
2008,07,25,12,16,19.10
2008,07,25,12,17,19.10
2008,07,25,12,18,19.10
2008,07,25,12,19,19.10
2008,07,25,12,20,19.10
2008,07,25,12,21,19.10
2008,07,25,12,22,19.00
2008,07,25,12,23,19.10
2008,07,25,12,24,19.10
2008,07,25,12,25,19.10
2008,07,25,12,26,19.10
2008,07,25,12,27,19.10
2008,07,25,12,28,19.10
2008,07,25,12,29,19.10
2008,07,25,12,30,19.10
2008,07,25,12,31,19.20
2008,07,25,12,32,19.30
2008,07,25,12,33,19.30
2008,07,25,12,34,19.40
2008,07,25,12,35,19.50
2008,07,25,12,36,19.50
2008,07,25,12,37,19.60
2008,07,25,12,38,19.60
2008,07,25,12,39,19.60
2008,07,25,12,40,19.60
2008,07,25,12,41,19.60
2008,07,25,12,42,19.60
2008,07,25,12,43,19.60
2008,07,25,12,44,19.60
2008,07,25,12,45,19.70
2008,07,25,12,46,19.80
2008,07,25,12,47,19.90
2008,07,25,12,48,20.00
2008,07,25,12,49,20.10
2008,07,25,12,50,20.20
2008,07,25,12,51,20.20
2008,07,25,12,52,20.40
2008,07,25,12,53,20.50
2008,07,25,12,54,20.60
2008,07,25,12,55,20.70
2008,07,25,12,56,20.80
2008,07,25,12,57,20.80
2008,07,25,12,58,20.90
2008,07,25,12,59,20.80
2008,07,25,13,00,20.80
2008,07,25,13,01,20.90
2008,07,25,13,02,20.90
2008,07,25,13,03,20.90
2008,07,25,13,04,21.10
2008,07,25,13,05,21.20
2008,07,25,13,06,21.30
2008,07,25,13,07,21.30
2008,07,25,13,08,21.40
2008,07,25,13,09,21.40
2008,07,25,13,10,21.50
2008,07,25,13,11,21.60
2008,07,25,13,12,21.60
2008,07,25,13,13,21.60
2008,07,25,13,14,21.60
2008,07,25,13,15,21.70
2008,07,25,13,16,21.90
2008,07,25,13,17,21.90
2008,07,25,13,18,22.00
2008,07,25,13,19,22.10
2008,07,25,13,20,22.10
2008,07,25,13,21,22.20
2008,07,25,13,22,22.30
2008,07,25,13,23,22.40
2008,07,25,13,24,22.60
2008,07,25,13,25,22.90
2008,07,25,13,26,22.90
2008,07,25,13,27,22.90
2008,07,25,13,28,22.90
2008,07,25,13,29,22.90
2008,07,25,13,30,22.90
2008,07,25,13,31,22.90
2008,07,25,13,32,23.00
2008,07,25,13,33,23.10
2008,07,25,13,34,23.10
2008,07,25,13,35,23.10
2008,07,25,13,36,23.10
2008,07,25,13,37,23.10
2008,07,25,13,38,23.10
2008,07,25,13,39,23.10
2008,07,25,13,40,23.20
2008,07,25,13,41,23.40
2008,07,25,13,42,23.40
2008,07,25,13,43,23.60
2008,07,25,13,44,23.40
2008,07,25,13,45,23.30
2008,07,25,13,46,23.30
2008,07,25,13,47,23.40
2008,07,25,13,48,23.40
2008,07,25,13,49,23.50
2008,07,25,13,50,23.40
2008,07,25,13,51,23.20
2008,07,25,13,52,23.10
2008,07,25,13,53,23.00
2008,07,25,13,54,22.90
2008,07,25,13,55,22.80
2008,07,25,13,56,22.70
2008,07,25,13,57,22.60
2008,07,25,13,58,22.50
2008,07,25,13,59,22.40
2008,07,25,14,00,22.40
2008,07,25,14,01,22.40
2008,07,25,14,02,22.40
2008,07,25,14,03,22.40
2008,07,25,14,04,22.40
2008,07,25,14,05,22.40
2008,07,25,14,06,22.50
2008,07,25,14,07,22.60
2008,07,25,14,08,22.60
2008,07,25,14,09,22.60
2008,07,25,14,10,22.50
2008,07,25,14,11,22.50
2008,07,25,14,12,22.50
2008,07,25,14,13,22.60
2008,07,25,14,14,22.60
2008,07,25,14,15,22.60
2008,07,25,14,16,22.60
2008,07,25,14,17,22.60
2008,07,25,14,18,22.60
2008,07,25,14,19,22.70
2008,07,25,14,20,22.70
2008,07,25,14,21,22.80
2008,07,25,14,22,22.80
2008,07,25,14,23,22.80
2008,07,25,14,24,22.70
2008,07,25,14,25,22.70
2008,07,25,14,26,22.70
2008,07,25,14,27,22.80
2008,07,25,14,28,22.80
2008,07,25,14,29,22.80
2008,07,25,14,30,22.70
2008,07,25,14,31,22.70
2008,07,25,14,32,22.80
2008,07,25,14,33,22.80
2008,07,25,14,34,22.80
2008,07,25,14,35,22.80
2008,07,25,14,36,22.80
2008,07,25,14,37,22.90
2008,07,25,14,38,22.90
2008,07,25,14,39,22.90
2008,07,25,14,40,22.80
2008,07,25,14,41,22.90
2008,07,25,14,42,22.90
2008,07,25,14,43,22.90
2008,07,25,14,44,23.00
2008,07,25,14,45,23.20
2008,07,25,14,46,23.30
2008,07,25,14,47,23.30
2008,07,25,14,48,23.30
2008,07,25,14,49,23.30
2008,07,25,14,50,23.30
2008,07,25,14,51,23.30
2008,07,25,14,52,23.30
2008,07,25,14,53,23.30
2008,07,25,14,54,23.30
2008,07,25,14,55,23.30
2008,07,25,14,56,23.30
2008,07,25,14,57,23.30
2008,07,25,14,58,23.30
2008,07,25,14,59,23.30
2008,07,25,15,00,23.30
2008,07,25,15,01,23.20
2008,07,25,15,02,23.10
2008,07,25,15,03,23.20
2008,07,25,15,04,23.20
2008,07,25,15,05,23.10
2008,07,25,15,06,23.10
2008,07,25,15,07,23.20
2008,07,25,15,08,23.20
2008,07,25,15,09,23.20
2008,07,25,15,10,23.20
2008,07,25,15,11,23.20
2008,07,25,15,12,23.20
2008,07,25,15,13,23.00
2008,07,25,15,14,22.90
2008,07,25,15,15,22.70
2008,07,25,15,16,22.60
2008,07,25,15,17,22.40
2008,07,25,15,18,22.30
2008,07,25,15,19,22.10
2008,07,25,15,20,22.00
2008,07,25,15,21,21.90
2008,07,25,15,22,21.80
2008,07,25,15,23,21.70
2008,07,25,15,24,21.60
2008,07,25,15,25,21.60
2008,07,25,15,26,21.40
2008,07,25,15,27,21.40
2008,07,25,15,28,21.40
2008,07,25,15,29,21.30
2008,07,25,15,30,21.30
2008,07,25,15,31,21.30
2008,07,25,15,32,21.30
2008,07,25,15,33,21.30
2008,07,25,15,34,21.30
2008,07,25,15,35,21.30
2008,07,25,15,36,21.30
2008,07,25,15,37,21.20
2008,07,25,15,38,21.10
2008,07,25,15,39,21.10
2008,07,25,15,40,21.10
2008,07,25,15,41,21.10
2008,07,25,15,42,21.00
2008,07,25,15,43,21.00
2008,07,25,15,44,21.00
2008,07,25,15,45,21.00
2008,07,25,15,46,21.00
2008,07,25,15,47,21.10
2008,07,25,15,48,21.10
2008,07,25,15,49,21.10
2008,07,25,15,50,21.10
2008,07,25,15,51,21.00
2008,07,25,15,52,21.10
2008,07,25,15,53,21.10
2008,07,25,15,54,21.10
2008,07,25,15,55,21.10
2008,07,25,15,56,21.10
2008,07,25,15,57,21.20
2008,07,25,15,58,21.20
2008,07,25,15,59,21.30
2008,07,25,16,00,21.30
2008,07,25,16,01,21.30
2008,07,25,16,02,21.30
2008,07,25,16,03,21.30
2008,07,25,16,04,21.30
2008,07,25,16,05,21.30
2008,07,25,16,06,21.40
2008,07,25,16,07,21.50
2008,07,25,16,08,21.60
2008,07,25,16,09,21.80
2008,07,25,16,10,21.90
2008,07,25,16,11,22.00
2008,07,25,16,12,22.10
2008,07,25,16,13,22.30
2008,07,25,16,14,22.40
2008,07,25,16,15,22.50
2008,07,25,16,16,22.60
2008,07,25,16,17,22.70
2008,07,25,16,18,22.80
2008,07,25,16,19,22.80
2008,07,25,16,20,22.80
2008,07,25,16,21,22.90
2008,07,25,16,22,23.10
2008,07,25,16,23,23.20
2008,07,25,16,24,23.20
2008,07,25,16,25,23.30
2008,07,25,16,26,23.30
2008,07,25,16,27,23.20
2008,07,25,16,28,23.30
2008,07,25,16,29,23.30
2008,07,25,16,30,23.30
2008,07,25,16,31,23.30
2008,07,25,16,32,23.30
2008,07,25,16,33,23.50
2008,07,25,16,34,23.60
2008,07,25,16,35,23.70
2008,07,25,16,36,23.90
2008,07,25,16,37,23.90
2008,07,25,16,38,24.00
2008,07,25,16,39,24.10
2008,07,25,16,40,24.10
2008,07,25,16,41,24.10
2008,07,25,16,42,24.10
2008,07,25,16,43,24.10
2008,07,25,16,44,24.10
2008,07,25,16,45,24.10
2008,07,25,16,46,24.10
2008,07,25,16,47,24.10
2008,07,25,16,48,24.10
2008,07,25,16,49,24.10
2008,07,25,16,50,24.10
2008,07,25,16,51,24.20
2008,07,25,16,52,24.30
2008,07,25,16,53,24.30
2008,07,25,16,54,24.30
2008,07,25,16,55,24.40
2008,07,25,16,56,24.30
2008,07,25,16,57,24.30
2008,07,25,16,58,24.20
2008,07,25,16,59,24.20
2008,07,25,17,00,24.20
2008,07,25,17,01,24.10
2008,07,25,17,02,24.10
2008,07,25,17,03,24.10
2008,07,25,17,04,24.10
2008,07,25,17,05,24.00
2008,07,25,17,06,23.90
2008,07,25,17,07,23.90
2008,07,25,17,08,23.80
2008,07,25,17,09,23.80
2008,07,25,17,10,23.80
2008,07,25,17,11,23.70
2008,07,25,17,12,23.70
2008,07,25,17,13,23.70
2008,07,25,17,14,23.70
2008,07,25,17,15,23.70
2008,07,25,17,16,23.70
2008,07,25,17,17,23.70
2008,07,25,17,18,23.70
2008,07,25,17,19,23.60